W5TTY Weather Reports


time (UTC)temp
C
wind
direction
speed
KPH
gust
KPH
rain 1hr
cm
rain 24hr
cm
rain mn
cm
humidity
%
barometer
mb
20260508032337 16 20 6.4 14.5 0.00 0.00 0.00 81 1014.0
20260508031822 16 37 8.0 14.5 0.00 0.00 0.00 81 1013.9
20260508031324 16 47 4.8 9.7 0.00 0.00 0.00 81 1014.1
20260508030823 16 349 4.8 8.0 0.00 0.00 0.00 81 1014.7
20260508030354 16 17 4.8 6.4 0.00 0.00 0.00 81 1014.4
20260508025819 16 36 4.8 6.4 0.00 0.00 0.00 81 1014.5
20260508025342 17 44 4.8 8.0 0.00 0.00 0.00 81 1014.2
20260508024828 17 50 4.8 8.0 0.00 0.00 0.00 81 1014.0
20260508024335 17 40 4.8 8.0 0.00 0.00 0.00 81 1014.0
20260508023820 17 38 4.8 8.0 0.00 0.00 0.00 81 1014.0
20260508023327 17 348 3.2 12.9 0.00 0.00 0.00 81 1014.6
20260508022831 17 347 4.8 12.9 0.00 0.00 0.00 81 1014.6
20260508022341 17 330 6.4 9.7 0.00 0.00 0.00 81 1014.6
20260508021826 17 35 4.8 8.0 0.00 0.00 0.00 81 1014.3
20260508021324 17 66 3.2 8.0 0.00 0.00 0.00 81 1013.9
20260508020830 17 52 4.8 8.0 0.00 0.00 0.00 80 1013.7
20260508020318 17 96 6.4 11.3 0.00 0.00 0.00 80 1013.5
20260508015826 17 94 6.4 11.3 0.00 0.00 0.00 81 1013.6
20260508015330 17 92 4.8 9.7 0.00 0.00 0.00 81 1013.8
20260508014835 17 89 4.8 9.7 0.00 0.00 0.00 81 1013.9
20260508014320 17 90 3.2 6.4 0.00 0.00 0.00 81 1014.1
20260508013833 17 90 3.2 9.7 0.00 0.00 0.00 80 1014.1
20260508013337 17 85 3.2 9.7 0.00 0.00 0.00 80 1014.0
20260508012846 17 94 4.8 9.7 0.00 0.00 0.00 80 1014.0
20260508012330 17 43 1.6 4.8 0.00 0.00 0.00 80 1014.2
20260508011821 17 39 3.2 8.0 0.00 0.00 0.00 80 1014.2
20260508011328 17 38 3.2 8.0 0.00 0.00 0.00 80 1014.3
20260508010837 17 41 4.8 6.4 0.00 0.00 0.00 80 1014.4
20260508010347 17 41 1.6 6.4 0.00 0.00 0.00 80 1014.3
20260508005831 17 41 3.2 8.0 0.00 0.00 0.00 80 1014.5
20260508005318 17 32 3.2 6.4 0.00 0.00 0.00 80 1014.4
20260508004826 17 12 3.2 6.4 0.00 0.00 0.00 80 1014.7
20260508004329 17 9 1.6 8.0 0.00 0.00 0.00 80 1014.9
20260508003835 17 19 4.8 8.0 0.00 0.00 0.00 80 1015.0
20260508003323 17 24 4.8 8.0 0.00 0.00 0.00 80 1014.8
20260508002833 18 22 4.8 8.0 0.00 0.00 0.00 80 1014.5
20260508002318 18 11 4.8 9.7 0.00 0.00 0.00 81 1014.9
20260508001826 18 338 4.8 8.0 0.00 0.00 0.00 81 1015.0
20260508001331 18 5 3.2 6.4 0.00 0.00 0.00 81 1014.7
20260508000833 18 5 3.2 9.7 0.00 0.00 0.00 81 1014.8
20260508000320 18 5 4.8 9.7 0.00 0.00 0.00 81 1014.9
20260507235834 18 355 4.8 9.7 0.00 0.00 0.00 81 1014.7
20260507235341 18 355 6.4 9.7 0.00 0.00 0.00 80 1014.8
20260507234827 18 360 4.8 8.0 0.00 0.00 0.00 80 1014.9
20260507234333 18 348 3.2 9.7 0.00 0.00 0.00 81 1014.9
20260507233821 18 339 4.8 12.9 0.00 0.00 0.00 81 1015.0
20260507233326 18 346 4.8 12.9 0.00 0.00 0.00 81 1015.0
20260507232900 18 19 4.8 14.5 0.00 0.00 0.00 81 1015.0
20260507232327 18 333 4.8 14.5 0.00 0.00 0.00 81 1015.1
20260507231831 18 15 6.4 14.5 0.00 0.00 0.00 81 1014.9
20260507231337 18 355 6.4 14.5 0.00 0.00 0.00 81 1014.9
20260507230826 18 5 9.7 14.5 0.00 0.00 0.00 81 1014.7
20260507230335 18 26 9.7 14.5 0.00 0.00 0.00 81 1014.7
20260507225844 18 44 6.4 11.3 0.00 0.00 0.00 81 1014.7
20260507225348 18 55 4.8 12.9 0.00 0.00 0.00 81 1015.0
20260507224836 18 49 4.8 11.3 0.00 0.00 0.00 81 1015.2
20260507224324 18 32 8.0 16.1 0.00 0.00 0.00 82 1015.2
20260507223827 18 23 8.0 16.1 0.00 0.00 0.00 82 1015.3
20260507223337 18 26 8.0 14.5 0.00 0.00 0.00 82 1015.2
20260507222851 18 24 8.0 14.5 0.00 0.00 0.00 81 1015.2
20260507222333 18 342 6.4 24.1 0.00 0.00 0.00 81 1015.3
20260507221820 18 24 9.7 24.1 0.00 0.00 0.00 81 1015.2
20260507221349 18 322 14.5 24.1 0.00 0.00 0.00 81 1015.0
20260507220835 18 355 16.1 24.1 0.00 0.00 0.00 82 1014.9
20260507220322 18 341 12.9 20.9 0.00 0.00 0.00 82 1015.2
20260507215825 18 5 9.7 20.9 0.00 0.00 0.00 82 1015.2
20260507215357 18 325 11.3 20.9 0.00 0.00 0.00 82 1015.4
20260507214845 18 9 9.7 19.3 0.00 0.00 0.00 82 1015.4
20260507214349 18 349 6.4 17.7 0.00 0.00 0.00 82 1015.7
20260507213834 18 40 8.0 19.3 0.00 0.00 0.00 82 1015.8
20260507213319 18 355 9.7 20.9 0.00 0.00 0.00 82 1015.4
20260507212854 18 355 8.0 22.5 0.00 0.00 0.00 82 1015.4
20260507212319 18 360 11.3 22.5 0.00 0.00 0.00 82 1015.2
20260507211828 18 32 6.4 16.1 0.00 0.00 0.00 83 1015.1
20260507211334 18 20 8.0 16.1 0.00 0.00 0.00 82 1015.1
20260507210822 18 355 8.0 17.7 0.00 0.00 0.00 82 1015.0
20260507210327 18 41 6.4 17.7 0.00 0.00 0.00 82 1014.9
20260507205836 18 53 8.0 17.7 0.00 0.00 0.00 82 1015.0
20260507205324 18 46 8.0 14.5 0.00 0.00 0.00 83 1014.8
20260507204829 18 58 4.8 16.1 0.00 0.00 0.00 83 1015.0
20260507204318 18 28 9.7 17.7 0.00 0.00 0.00 83 1015.2
20260507203819 18 64 6.4 12.9 0.00 0.00 0.00 83 1015.4
20260507203324 18 37 3.2 17.7 0.00 0.00 0.00 83 1015.6
20260507202840 18 19 6.4 22.5 0.00 0.00 0.00 83 1015.9
20260507202325 18 11 8.0 17.7 0.00 0.00 0.00 83 1016.0
20260507201828 18 17 12.9 19.3 0.00 0.00 0.00 83 1015.7
20260507201337 18 11 11.3 20.9 0.00 0.00 0.00 83 1015.7
20260507200820 18 28 12.9 20.9 0.00 0.00 0.00 84 1015.8
20260507200328 18 355 8.0 19.3 0.00 0.00 0.00 84 1015.9
20260507195903 18 36 9.7 19.3 0.00 0.00 0.00 84 1016.0
20260507195318 18 67 6.4 20.9 0.00 0.00 0.00 84 1016.1
20260507194831 18 360 9.7 20.9 0.00 0.00 0.00 84 1016.5
20260507194357 18 50 8.0 19.3 0.00 0.00 0.00 84 1016.8
20260507193821 19 341 4.8 19.3 0.00 0.00 0.00 84 1016.8
20260507193327 18 336 11.3 19.3 0.00 0.00 0.00 85 1016.9
20260507192830 18 5 6.4 19.3 0.00 0.00 0.00 85 1017.2
20260507192335 18 26 9.7 24.1 0.00 0.00 0.00 85 1016.2
20260507191819 18 20 11.3 24.1 0.00 0.00 0.00 85 1016.9
20260507191334 18 54 14.5 22.5 0.00 0.00 0.00 85 1016.4
20260507190841 18 46 8.0 22.5 0.00 0.00 0.00 85 1016.5
20260507190325 18 62 8.0 22.5 0.00 0.00 0.00 85 1016.2
20260507185831 18 46 12.9 25.7 0.00 0.00 0.00 85 1016.2
20260507185335 18 22 12.9 22.5 0.00 0.00 0.00 85 1016.6
20260507184841 18 17 12.9 24.1 0.00 0.00 0.00 85 1016.6
20260507184352 18 29 11.3 24.1 0.00 0.00 0.00 86 1016.8
20260507183835 18 350 12.9 20.9 0.00 0.00 0.00 86 1017.1
20260507183320 18 31 6.4 19.3 0.00 0.00 0.00 86 1017.1
20260507182825 18 351 9.7 17.7 0.00 0.00 0.00 86 1017.4
20260507182329 17 339 11.3 19.3 0.00 0.00 0.00 86 1017.5
20260507181837 17 346 6.4 19.3 0.00 0.00 0.00 86 1016.7
20260507181321 17 32 12.9 19.3 0.00 0.00 0.00 86 1016.9
20260507180832 17 44 4.8 12.9 0.00 0.00 0.00 86 1017.4
20260507180342 18 56 4.8 14.5 0.00 0.00 0.00 86 1017.8
20260507175828 18 5 8.0 19.3 0.00 0.00 0.00 87 1018.1
20260507175332 17 314 9.7 19.3 0.00 0.00 0.00 87 1018.0
20260507174839 17 5 8.0 17.7 0.00 0.00 0.00 87 1017.9
20260507174319 17 27 9.7 17.7 0.00 0.00 0.00 87 1017.1
20260507173821 17 53 12.9 17.7 0.00 0.00 0.00 87 1017.2
20260507173333 17 63 8.0 19.3 0.00 0.00 0.00 87 1017.4
20260507172838 17 44 9.7 25.7 0.00 0.00 0.00 87 1017.1
20260507172320 16 10 14.5 20.9 0.00 0.00 0.00 87 1017.4
20260507171825 16 87 9.7 17.7 0.00 0.00 0.00 87 1017.0
20260507171328 16 59 9.7 20.9 0.00 0.00 0.00 87 1017.2
20260507170834 16 344 8.0 22.5 0.00 0.00 0.00 87 1017.4
20260507170319 16 20 9.7 22.5 0.00 0.00 0.00 87 1017.3
20260507165827 16 18 11.3 20.9 0.00 0.00 0.00 87 1017.4
20260507165331 16 51 11.3 19.3 0.00 0.00 0.00 87 1017.8
20260507164818 16 360 12.9 17.7 0.00 0.00 0.00 87 1017.5
20260507164321 16 12 6.4 14.5 0.00 0.00 0.00 87 1017.6
20260507163838 16 57 8.0 14.5 0.00 0.00 0.00 87 1017.8
20260507163344 16 350 4.8 12.9 0.00 0.00 0.00 87 1017.9
20260507162829 16 316 6.4 16.1 0.00 0.00 0.00 87 1018.3
20260507162333 16 348 6.4 16.1 0.00 0.00 0.00 87 1018.1
20260507161837 16 5 4.8 16.1 0.00 0.00 0.00 87 1017.9
20260507161351 15 18 9.7 17.7 0.00 0.00 0.00 87 1018.1
20260507160834 15 39 11.3 19.3 0.00 0.00 0.00 87 1017.7
20260507160344 15 348 14.5 20.9 0.00 0.00 0.00 87 1017.5
20260507155828 16 347 12.9 24.1 0.00 0.00 0.00 87 1017.6
20260507155336 15 11 12.9 24.1 0.00 0.00 0.00 88 1017.5
20260507154845 15 39 16.1 22.5 0.00 0.00 0.00 88 1017.3
20260507154330 15 312 12.9 22.5 0.00 0.00 0.00 88 1017.4
20260507153819 15 32 16.1 22.5 0.00 0.00 0.00 88 1017.2
20260507153327 15 355 12.9 24.1 0.00 0.00 0.00 88 1017.2
20260507152831 15 355 14.5 24.1 0.00 0.00 0.00 88 1017.2
20260507152337 15 355 16.1 29.0 0.00 0.00 0.00 88 1016.8
20260507151844 15 28 16.1 29.0 0.00 0.00 0.00 88 1016.9
20260507151327 15 34 16.1 22.5 0.00 0.00 0.00 88 1017.2
20260507150833 15 24 17.7 22.5 0.00 0.00 0.00 88 1017.4
20260507150323 15 335 11.3 22.5 0.00 0.00 0.00 88 1017.5
20260507145829 15 31 11.3 22.5 0.00 0.00 0.00 88 1017.4
20260507145339 15 32 12.9 22.5 0.00 0.00 0.00 88 1017.5
20260507144845 15 41 11.3 24.1 0.00 0.00 0.00 88 1018.0
20260507144327 15 351 12.9 22.5 0.00 0.00 0.00 88 1017.8
20260507143832 14 40 9.7 24.1 0.00 0.00 0.00 88 1017.8
20260507143319 14 19 9.7 27.4 0.00 0.00 0.00 88 1017.7
20260507142852 14 348 17.7 27.4 0.00 0.00 0.00 88 1017.6
20260507142331 14 344 16.1 24.1 0.00 0.00 0.00 88 1017.5
20260507141836 14 32 12.9 24.1 0.00 0.00 0.00 88 1017.4
20260507141323 14 360 12.9 22.5 0.00 0.00 0.00 88 1017.6
20260507140847 14 13 14.5 27.4 0.00 0.00 0.00 88 1017.4
20260507140334 14 29 12.9 27.4 0.00 0.00 0.00 88 1017.8
20260507135847 14 328 12.9 33.8 0.00 0.00 0.00 88 1018.1
20260507135329 14 5 16.1 33.8 0.00 0.00 0.00 88 1018.3
20260507134832 14 5 14.5 29.0 0.00 0.00 0.00 88 1018.3
20260507134338 14 329 14.5 29.0 0.00 0.00 0.00 88 1018.4
20260507133821 14 10 9.7 22.5 0.00 0.00 0.00 88 1018.2
20260507133333 14 349 11.3 22.5 0.00 0.00 0.00 88 1017.9
20260507132324 14 12 16.1 29.0 0.00 0.00 0.00 88 1017.5
20260507131338 13 33 16.1 30.6 0.00 0.00 0.00 87 1017.6
20260507130823 14 35 17.7 29.0 0.00 0.00 0.00 87 1017.6
20260507130327 14 340 16.1 29.0 0.00 0.00 0.00 87 1017.9
20260507125834 14 346 12.9 22.5 0.00 0.00 0.00 87 1017.8
20260507125318 14 33 11.3 29.0 0.00 0.00 0.00 87 1017.6
20260507124820 14 360 16.1 29.0 0.00 0.00 0.00 87 1017.5
20260507124322 14 5 12.9 22.5 0.00 0.00 0.00 87 1017.5
20260507123854 14 360 11.3 24.1 0.00 0.00 0.00 87 1017.6
20260507123321 14 333 9.7 24.1 0.00 0.00 0.00 87 1017.3
20260507122830 14 355 8.0 16.1 0.00 0.00 0.00 87 1017.1
20260507122336 14 37 6.4 14.5 0.00 0.00 0.00 87 1017.2
20260507121823 14 21 8.0 20.9 0.00 0.00 0.00 87 1017.3
20260507121328 14 45 11.3 20.9 0.00 0.00 0.00 87 1017.3
20260507120833 14 17 9.7 22.5 0.00 0.00 0.00 87 1017.4
20260507120335 14 344 8.0 25.7 0.00 0.00 0.00 87 1017.3
20260507115821 14 9 6.4 25.7 0.00 0.00 0.00 87 1017.0
20260507115321 14 11 12.9 25.7 0.00 0.00 0.00 87 1016.7
20260507114824 14 24 16.1 27.4 0.00 0.00 0.00 87 1016.4
20260507114356 15 41 16.1 27.4 0.00 0.00 0.00 87 1016.0
20260507113823 15 349 12.9 27.4 0.00 0.00 0.00 87 1016.0
20260507113328 15 5 8.0 24.1 0.00 0.00 0.00 87 1016.1
20260507112834 15 339 11.3 24.1 0.00 0.00 0.00 87 1016.0